Flag for U.S.A. Weather past 2 weeks in McAllen, Texas, U.S.A.

Now
88 °F

Scattered clouds.


Feels Like: 98 °F
Forecast: 76 / 89 °F
Wind: 16 mph from East

Location: Miller International Airport

Current Time: Sep 22, 2014 at 3:21:59 PM

Latest Report: Sep 22, 2014 at 2:53 PM


Visibility: 10 mi

Pressure: 29.97 "Hg

Humidity: 65%

Dew point: 75 °F

Location of McAllenLocation

Historic Weather in McAllen — Graph

°F

McAllen temperature yesterday

Maximum temperature yesterday: 90 °F (at 1:53 PM)
Minimum temperature yesterday: 77 °F (at 4:53 AM)
Average temperature yesterday: 82 °F

Past Weeks' High & Low Weather Summary

 TemperatureHumidityPressure
High95 °F (Sep 9, 3:53 PM)100% (Sep 12, 9:59 PM)30.13 "Hg (Sep 12, 9:59 PM)
Low71 °F (Sep 13, 9:53 PM)40% (Sep 8, 4:53 PM)29.74 "Hg (Sep 18, 4:53 PM)
Average81 °F81%29.93 "Hg
* Reported Sep 7 1:53 PM — Sep 22 1:53 PM, McAllen, Weather by CustomWeather, © 2014

Note: Actual official high and low records may vary slightly from our data, if they occured in-between our weather recording intervals... More about our weather records

Advertising

McAllen weather history for previous 24 hours

 ConditionsComfort  
Time TempWeatherWind HumidityBarometerVisibility
1:53 PM
Sep 22
87 °FCloudy.13 mph65%30.00 "Hg10 mi
12:53 PM88 °FScattered clouds.13 mph67%30.02 "Hg10 mi
11:53 AM84 °FLight rain. Broken clouds.16 mph70%30.04 "Hg10 mi
10:53 AM83 °FPartly sunny.12 mph74%30.04 "Hg10 mi
9:53 AM82 °FPassing clouds.7 mph79%30.03 "Hg10 mi
9:03 AM81 °FBroken clouds.6 mph84%30.04 "Hg10 mi
8:53 AM79 °FPartly sunny.6 mph88%30.03 "Hg10 mi
7:53 AM77 °FPassing clouds.6 mph94%30.01 "Hg8 mi
7:02 AM77 °FPartly cloudy.7 mph94%30.01 "Hg10 mi
6:53 AM77 °FLight rain. Fog.6 mph94%30.00 "Hg5 mi
5:53 AM77 °FOvercast.6 mph90%29.99 "Hg10 mi
4:53 AM77 °FMostly cloudy.6 mph90%29.98 "Hg10 mi
3:53 AM78 °FOvercast.6 mph84%29.98 "Hg10 mi
2:53 AM77 °FOvercast.7 mph96%29.98 "Hg10 mi
1:53 AM78 °FPassing clouds.9 mph93%29.98 "Hg10 mi
12:53 AM78 °FOvercast.5 mph93%29.99 "Hg10 mi
11:53 PM
Sep 21
78 °FLight rain. Overcast.9 mph93%29.99 "Hg9 mi
11:03 PM79 °FHeavy rain. Fog.8 mph94%29.99 "Hg2 mi
10:55 PM79 °FPassing clouds.8 mph94%30.00 "Hg8 mi
9:53 PM79 °FPartly cloudy.7 mph94%29.97 "Hg10 mi
8:53 PM78 °FLight rain. Fog.13 mph93%29.96 "Hg5 mi
7:53 PM81 °FLight rain. Cloudy.8 mph88%29.93 "Hg10 mi
6:53 PM85 °FBroken clouds.10 mph70%29.90 "Hg10 mi
5:53 PM87 °FPassing clouds.10 mph65%29.89 "Hg10 mi
4:53 PM87 °FSunny.9 mph69%29.89 "Hg10 mi
3:53 PM87 °FPassing clouds.14 mph67%29.90 "Hg10 mi
Weather by CustomWeather, © 2014

See weather overviewHow to use our weather pages